Погода Марково

Погода Марково : погода сейчас, прогноз погоды и архив. Всё, что Вы хотите узнать о погоде Марково!

Хотите узнать прогноз погоды Марково? Тогда Вам сюда: Погода Марково

Поиск расширенной информации на нашем сайте:

Другие новости

Новости СМИ2

Главная страница сайта

Новости сайта

03.07.2017

Напоминаем, что на нашем специализированном сайте Метеоцентр.Азия вы можете получить высокодетализированные автоматические прогнозы погоды по пунктам России, СНГ и мира в авиационном формате (включающие направление и скорость ветра, видимость, явления погоды, количество и форму облачности, нижнюю и верхнюю границу облачности).


Погода Марково - сегодня

Время (UTC), дата Ветер
(°,м/с) 
Видим.   Явления Облачность Т
(°С)
Тd
(°С)
f(%) Тe
(°С)
Pmin
(гПа)
dP
(гПа)
Po
(мм)
O2
(г/м3)
Тmin Tmax R s Состояние
почвы
09 14.08.18 180 (Ю) 1{02}  20000 м    8/0 верхняя 
[Cs]
+9.2 +8 92 +10  1023.2  0.9  765  297           
12 14.08.18 210 (ЮЗ) 1{03}  20000 м    6/0 верхняя 
[Ci fib]
+2.9 +2.4 97 +4  1024  0.8  766  305           
15 14.08.18 240 (ЮЗ) 1{02}  20000 м    4/0 верхняя 
[Ci fib]
-1.1 -1.4 98 -1  1024.4  0.3  766  310           
18 14.08.18 210 (ЮЗ) 1{02}  20000 м    1/0 верхняя 
[Ci fib]
+0.4 +0.1 98 +1  1024.6  0.2  766  308  -1.7        влажная 
21 14.08.18 140 (ЮВ) 1{03}  20000 м    3/0 верхняя 
[Ci fib]
+12.4 +7.4 72 +14  1024.4  766  294           
00 15.08.18 190 (Ю) 2{04}  20000 м    4/0 верхняя 
[Ci fib]
+19.9 +5.5 39 +21  1023.2  -1.1  765  287           
03 15.08.18 240 (ЮЗ) 1{04}  20000 м    5/1 600 м верхняя 
[Cu hum|Ci fib]
+22.6 +2.7 27 +23  1021.3  -1.9  764  284           
09 15.08.18 180 (Ю) 2{05}  20000 м    8/0 верхняя 
[Cs]
+14.8 +7.1 60 +15  1019.5  -0.4  762  290           
12 15.08.18 220 (ЮЗ) 1{04}  20000 м    6/0 верхняя 
[Ci fib]
+3.3 +2.6 95 +4  1019.2  -0.4  762  303           
15 15.08.18 250 (З) 1{02}  20000 м    8/0 верхняя 
[Ci fib]
+2.7 +2.2 96 +3  1018.4  -0.8  762  304           
18 15.08.18 180 (Ю) 1{03}  20000 м    8/0 верхняя 
[Cs]
+4.4 +3.9 97 +5  1017.8  -0.6  761  301  +1        влажная 
21 15.08.18 130 (ЮВ) 1{02}  20000 м    8/0 верхняя 
[Cs]
+14.5 +7.4 62 +16  1016.8  -0.9  760  290           
00 16.08.18 180 (Ю) 2{04}  20000 м    6/0 верхняя 
[Cc]
+22 +6.8 37 +22  1015  -1.7  759  282           
03 16.08.18 270 (З) 2{04}  20000 м    8/0 верхняя 
[Cc]
+24.6 +4.6 27 +25  1012.9  -2.1  758  279           
09 16.08.18 210 (ЮЗ) 2{07}  20000 м    8/0 верхняя 
[Cc]
+15.5 +8.6 63 +16  1010.8  -0.5  756  287           
12 16.08.18 150 (ЮВ) 1{04}  20000 м    8/0 верхняя 
[Ci fib]
+4 +3.3 95 +5  1010.4  -0.5  756  300           
15 16.08.18 180 (Ю) 2{02}  20000 м    6/0 верхняя 
[Ci fib]
+2.9 +2.4 97 +2  1009.3  -1.1  755  301           
18 16.08.18 110 (В) 1{03}  20000 м    8/0 верхняя 
[Ci fib]
+4.1 +3.6 97 +5  1008.9  -0.4  755  299  +1.7        влажная 
21 16.08.18 170 (Ю) 2{03}  20000 м    8/0 верхняя 
[Ci fib]
+15.3 +9.3 67 +16  1008.5  -0.3  754  286           
00 17.08.18 240 (ЮЗ) 3{06}  20000 м    8/0 верхняя 
[Ci fib]
+22.1 +8 40 +22  1007.4  -1  754  280           
03 17.08.18 240 (ЮЗ) 4{08}  20000 м    8/0 верхняя 
[Ci fib]
+23.7 +7.6 36 +24  1006.6  -0.8  753  278           
09 17.08.18 230 (ЮЗ) 4{09}  20000 м    8/0 верхняя 
[Cc]
+14.6 +5.8 55 +14  1007.1  0.6  753  287           
12 17.08.18 210 (ЮЗ) 2{07}  20000 м    5/0 верхняя 
[Ci fib]
+11 +3.8 61 +11  1007.6  0.4  754  291           
15 17.08.18 180 (Ю) 2{04}  20000 м    3/0 верхняя 
[Ci fib]
+6.6 +3 78 +6  1007.7  0.1  754  296           
18 17.08.18 150 (ЮВ) 2{05}  20000 м    3/0 верхняя 
[Ci fib]
+8.1 +4.6 79 +8  1008.3  0.6  754  294  +4.1        влажная 
Время (UTC), дата Ветер
(°,м/с) 
Видим.   Явления Облачность Т
(°С)
Тd
(°С)
f(%) Тe
(°С)
Pmin
(гПа)
dP
(гПа)
Po
(мм)
O2
(г/м3)
Тmin Tmax R s Состояние
почвы

Для получения пояснительной информации подведите курсор к названию столбца.

ПОГОДА Марково - архив

Всё, что Вы хотите узнать о погоде Марково - удобно и подробно!

Выберите нужную дату (начиная с 1 января 2015* года) и нажмите кнопку "Найти".
Будут отображены архивные сводки погоды по пункту Марково, начиная с указанной даты.


Отображать данные в формате CSV (для использования в таблицах Excel)


Внимание! Наш архив погоды предназначен исключительно для личного некоммерческого использования в познавательных целях. Если Вам необходимы официальные справки о состоянии погоды (для производственных, юридических, коммерческих и т.п. целей), обращайтесь в органы Росгидромета.

*Примечание: данная дата относится к архиву по метеостанциям СССР (Россия, СНГ, Балтия).
Архив по метеостанциям Зарубежной Европы и Азии (кроме Китая) хранится 10 дней, по другим регионам земного шара (Китай, Африка, Америка, Австралия, Океания) - 1 день.

Марково - район местоположения метеостанции


Название, широта, долгота, высота метеостанции:
Марково 64.7°ш. 170.4°д. 26 м над ур. моря [Российская Федерация]

Дополнительная информация

В oтличие oт бoльшинства пoгoдных сайтoв мы публикуем пoдрoбную метеoинфoрмацию в детальнoм прoфессиoнальнoм фoрмате.

Характеристики температуры и влажнoсти вoздуха измеряются на высoте 2 м в тени вдали oт зданий и деревьев.
Скoрoсть ветра измеряется на высoте 10 м (на урoвне рoста челoвека скoрoсть ветра ниже в 1.5-2 раза). Если метеoстанция нахoдится в гoрoде или в лесу, тo скoрoсть ветра занижена на 2-4 м/с пo сравнению с oткрытым местoм. Скoрoсть ветра над акватoриями крупных рек и oзёр, а также на вершинах хoлмoв на 2-5 м/с выше, чем в oбычных услoвиях.
Атмoсфернoе давление в разных тoчках местнoсти мoжет значительнo oтличаться oт давления на метеoстанции, в зависимoсти oт услoвий рельефа (при пoдъёме на 10 м давление пoнижается примернo на 1 мм рт.ст.).